K5GBW Weather Reports


Display with metric or nautical units.
time (UTC)temp
F
wind
direction
speed
MPH
gust
MPH
rain 1hr
in
rain 24hr
in
rain mn
in
humidity
%
barometer
mb
20260503220050 67 243 7.0 15.0 0.00 0.00 0.00 48 1004.6
20260503214550 68 168 6.0 17.0 0.00 0.00 0.00 48 1004.8
20260503213048 67 284 6.0 21.0 0.00 0.00 0.00 48 1004.8
20260503211549 67 214 7.0 20.0 0.00 0.00 0.00 49 1005.1
20260503210048 66 259 5.0 14.0 0.00 0.00 0.00 51 1005.3
20260503204550 65 303 8.0 19.0 0.00 0.00 0.00 53 1005.7
20260503203055 64 245 8.0 16.0 0.00 0.00 0.00 54 1006.0
20260503201551 64 239 12.0 21.0 0.00 0.00 0.00 52 1006.3
20260503200055 65 205 10.0 21.0 0.00 0.00 0.00 51 1006.6
20260503194600 65 210 7.0 17.0 0.00 0.00 0.00 49 1006.7
20260503193048 64 256 9.0 20.0 0.00 0.00 0.00 49 1006.8
20260503191553 63 269 8.0 19.0 0.00 0.00 0.00 52 1006.9
20260503190049 63 262 6.0 18.0 0.00 0.00 0.00 49 1007.2
20260503184549 63 243 10.0 19.0 0.00 0.00 0.00 50 1007.2
20260503183053 62 304 7.0 19.0 0.00 0.00 0.00 54 1007.5
20260503181551 61 251 5.0 14.0 0.00 0.00 0.00 57 1007.8
20260503180058 60 278 9.0 17.0 0.00 0.00 0.00 59 1007.9
20260503174556 58 262 9.0 17.0 0.00 0.00 0.00 62 1008.5
20260503173047 57 240 8.0 17.0 0.00 0.00 0.00 64 1009.1
20260503171555 55 162 5.0 12.0 0.00 0.00 0.00 65 1009.4
20260503110106 49 233 5.0 14.0 0.00 0.00 0.00 59 1011.3
20260503081551 48 214 5.0 10.0 0.00 0.00 0.00 58 1012.5
20260503071608 47 236 3.0 10.0 0.00 0.00 0.00 60 1012.7
20260503060109 46 200 2.0 8.0 0.00 0.00 0.00 63 1013.6
20260503054558 46 243 2.0 6.0 0.00 0.00 0.00 63 1013.6
20260503053048 46 254 2.0 5.0 0.00 0.00 0.00 64 1013.7
20260503051550 45 243 2.0 8.0 0.00 0.00 0.00 65 1013.9
20260503050053 45 213 1.0 6.0 0.00 0.00 0.00 67 1013.8
20260503044552 44 230 1.0 5.0 0.00 0.00 0.00 69 1013.9
20260503043054 43 234 1.0 5.0 0.00 0.00 0.00 72 1014.0
20260503041550 42 197 0.0 2.0 0.00 0.00 0.00 76 1014.0
20260503034548 40 0 0.0 2.0 0.00 0.00 0.00 84 1014.3
20260503033046 39 0 0.0 2.0 0.00 0.00 0.00 85 1014.4
20260503031603 40 0 0.0 2.0 0.00 0.00 0.00 86 1014.4
20260503030050 39 186 0.0 0.0 0.00 0.00 0.00 86 1014.6
20260503024554 39 0 0.0 1.0 0.00 0.00 0.00 85 1014.7
20260503023051 39 0 0.0 1.0 0.00 0.00 0.00 85 1014.8
20260503021555 39 0 0.0 1.0 0.00 0.00 0.00 85 1014.8
20260503020054 39 144 0.0 1.0 0.00 0.00 0.00 84 1014.8
20260503014606 40 0 0.0 1.0 0.00 0.00 0.00 82 1014.6
20260503013050 41 0 0.0 1.0 0.00 0.00 0.00 80 1014.6
20260503011553 42 0 0.0 2.0 0.00 0.00 0.00 78 1014.6
20260503010049 43 0 0.0 4.0 0.00 0.00 0.00 76 1014.6
20260503004549 44 169 0.0 4.0 0.00 0.00 0.00 74 1014.8
20260503003050 44 91 1.0 4.0 0.00 0.00 0.00 71 1014.8
20260503001601 46 221 1.0 6.0 0.00 0.00 0.00 68 1015.1
20260503000054 48 133 2.0 6.0 0.00 0.00 0.00 64 1015.2
20260502234553 49 198 2.0 5.0 0.00 0.00 0.00 62 1015.2
20260502233054 48 91 2.0 8.0 0.00 0.00 0.00 63 1015.3
20260502231552 47 146 2.0 6.0 0.00 0.00 0.00 66 1015.4
20260502230056 47 125 2.0 6.0 0.00 0.00 0.00 64 1015.6
20260502224553 48 169 3.0 10.0 0.00 0.00 0.00 59 1015.7
20260502223049 49 193 2.0 7.0 0.00 0.00 0.00 60 1015.9
20260502221548 50 193 3.0 8.0 0.00 0.00 0.00 58 1016.0